Location: Taukkyan
(23.1052°N, 94.0030°E)
Time: 11:35:36
(UTC+00:00)

Cosmos 2315 Rocket - Pass Details

Date: 06 July 2020
Orbit: 967 x 1001 km, 82.9° (Epoch: 14 August)

Event Time Altitude Azimuth Distance (km) Brightness Sun altitude
Rises 13:31:24 0° 355° (N) 3,702 7.6 -12.5°
Reaches altitude 10° 13:33:55 10° 355° (N) 2,755 6.9 -13.0°
Maximum altitude 13:40:16 88° 267° (W) 1,001 4.1 -14.2°
Drops below altitude 10° 13:46:37 10° 177° (S) 2,760 6.0 -15.5°
Enters shadow 13:48:17 - 177° (S) 3,381 6.5 -15.8°
